Terminal Aerodrome Forecast
Issued by NWS Aberdeen, SD

Home | Current Version | Previous Version | Text Only | Print | Product List | Glossary On
Versions: 1 2 3 4 5 6 7 8 9 10 11 12 13 14 15 16 17 18 19 20 21 22 23 24 25 26 27 28 29 30 31 32 33 34 35 36 37 38 39 40 41 42 43 44 45 46 47 48 49 50
000
FTUS43 KABR 272327
TAFABR
TAF
KABR 272327Z 2800/2824 VRB04KT P6SM BKN150
     FM280300 VRB03KT P6SM SKC
     FM280600 VRB03KT 3SM BR SKC
     FM280800 VRB03KT 1SM BR SKC
      TEMPO 2809/2812 1/2SM FG BKN004
     FM281400 VRB04KT P6SM SKC=

USA.gov is the U.S. government's official web portal to all federal, state and local government web resources and services.